Torna al catalogo

THORAD DELTA 1 DEB

AttivoSSO
NORAD 8159·DEBRIS·🇺🇸 United States

Lanciato Nov 15, 1974 da Vandenberg Space Force Base

Loading…

Prossimi Passaggi (prossime 24 ore)

TLE

AggiornatoSource: Space-Track

Epoca: Sep 14, 2026, 12:54 UTC

1 08159U 74089Z   26257.53753333  .00000375  00000-0  21377-2 0  9992
2 08159 101.3833 278.4078 0042688  42.2631 318.1729 12.68889624370135

Traccia THORAD DELTA 1 DEB in tempo reale con AllMySat

Download on the App Store